Wetbulb
29.23 31.00 31.06 31.68 32.05 33.35 34.36 32.47 33.34 35.32 38.58 44.12 60.12 64.14 63.99 64.86 65.38 65.79 66.63 66.41 65.36 65.23 64.83 64.31 62.91 62.74 61.55 60.72 60.53 60.57 59.57 58.80 59.18 57.47 56.63 56.88 58.21 59.25 59.25 58.52 57.14 58.62 59.51
25.93 28.63 28.73 28.74 29.70 29.70 30.83 31.95 31.71 32.31 36.72 40.73 45.08 57.61 64.04 64.55 65.16 65.23 66.32 66.51 65.31 65.20 64.67 63.52 62.33 62.31 61.25 60.76 60.50 59.94 58.50 57.65 58.07 55.62 55.14 51.55 54.02 57.01 58.17 58.22 56.87 56.89 58.64
23.89 25.73 26.97 27.11 28.07 27.90 28.81 29.89 29.58 30.65 35.35 37.56 42.03 50.77 64.00 63.72 63.33 63.73 64.57 65.03 65.09 64.39 64.31 63.29 62.49 62.10 61.75 60.52 60.32 59.89 58.78 55.14 57.74 58.02 55.25 51.20 49.86 53.31 56.30 56.51 57.33 57.51 57.68
24.33 24.94 25.90 25.91 26.27 26.74 28.13 29.58 29.61 29.79 33.96 35.54 38.58 45.01 58.54 60.75 62.31 62.82 63.37 63.60 64.18 64.00 64.52 63.16 62.31 62.11 61.74 60.74 60.39 60.28 59.01 58.17 56.04 57.12 57.78 58.63 56.71 51.66 49.98 55.31 56.76 58.10 57.84
23.42 24.36 25.05 26.36 26.48 26.75 26.40 27.43 28.04 28.76 29.83 32.52 35.56 42.44 45.41 62.12 62.52 62.59 62.98 62.73 63.06 63.71 64.09 62.92 62.18 61.54 61.45 61.09 60.29 59.77 59.04 58.39 57.28 56.40 56.21 57.01 57.06 56.49 52.19 50.53 53.68 56.88 58.03
22.69 24.33 25.76 26.44 25.87 25.99 25.38 26.51 26.72 26.88 27.46 29.97 33.45 38.50 42.80 55.76 60.90 61.31 61.26 61.30 62.06 62.54 63.30 62.48 61.96 61.62 61.05 60.73 60.27 60.17 59.70 58.69 57.92 57.53 56.88 56.41 55.53 54.89 54.83 52.77 53.84 54.11 56.17
21.74 23.08 23.20 24.52 25.02 24.36 24.66 24.64 24.70 24.73 26.18 27.37 30.21 34.40 39.46 42.15 60.59 61.21 60.88 60.34 60.61 61.21 61.70 62.04 61.39 60.93 61.00 60.97 60.49 59.81 59.62 59.31 58.09 57.36 56.80 57.59 58.30 57.64 57.97 56.30 54.64 54.18 55.96
20.86 21.93 22.99 23.78 24.29 24.21 24.04 23.54 22.89 23.35 24.27 25.19 27.26 32.24 36.86 40.89 54.74 61.52 61.08 60.70 60.50 61.29 62.45 62.00 61.56 61.18 61.15 60.99 60.64 59.80 59.58 59.78 59.02 57.76 57.38 57.32 58.78 59.06 58.65 57.65 55.65 53.75 54.56
20.24 20.87 22.30 23.29 23.87 23.76 23.25 23.23 22.25 22.91 23.42 24.43 25.93 30.01 33.62 38.18 42.65 57.65 61.23 61.09 61.25 61.39 61.77 62.04 61.80 61.55 61.14 60.80 60.49 59.51 59.21 59.42 59.29 58.67 58.05 57.33 58.13 59.87 59.26 59.18 58.18 55.85 52.26
19.88 20.44 21.58 21.99 23.52 23.98 23.85 23.56 22.87 22.42 22.99 23.73 24.50 28.37 31.54 35.68 39.47 45.65 59.21 60.88 61.09 61.00 60.68 60.91 61.48 61.11 60.53 60.34 60.14 59.50 59.48 58.80 59.06 59.09 58.43 57.82 57.79 59.43 59.78 59.31 58.85 58.19 56.47
19.56 20.09 21.14 22.23 22.67 23.59 23.10 22.96 22.03 21.60 22.33 23.16 24.40 26.14 28.91 32.99 37.49 40.72 45.57 57.52 60.43 60.64 60.05 60.17 60.11 59.98 59.68 59.78 59.36 59.25 58.95 58.33 58.44 58.71 58.33 57.76 57.84 58.17 59.02 59.22 58.82 57.93 57.72
20.55 20.71 21.19 21.56 21.53 21.54 22.16 21.57 21.69 21.37 21.76 22.75 24.16 24.97 27.04 30.60 32.99 37.14 39.49 44.35 55.41 60.10 59.84 59.84 59.50 59.46 59.26 59.48 58.81 58.37 58.45 58.05 57.55 57.80 57.79 57.46 57.43 56.87 58.17 58.66 58.17 57.75 58.01
20.53 20.81 20.78 20.23 20.18 20.56 20.67 20.92 21.65 21.53 21.79 22.15 23.31 23.99 24.71 26.61 30.01 33.02 37.64 40.76 45.39 53.46 59.69 59.46 59.00 58.88 58.94 58.59 58.68 58.52 58.30 58.19 58.16 58.21 57.70 57.61 57.41 56.35 56.73 57.38 57.78 57.95 57.16
20.50 20.12 20.07 19.82 20.12 20.39 20.17 20.28 20.91 21.82 21.90 22.09 22.31 22.86 23.71 24.76 27.91 31.12 35.55 38.77 41.82 46.71 56.37 59.52 59.42 59.08 58.90 58.86 58.62 58.46 58.28 58.10 58.18 58.32 58.27 57.90 57.58 56.80 56.67 57.09 57.59 57.98 57.25
19.66 19.24 19.30 19.71 19.58 19.49 19.71 20.43 20.63 21.62 22.26 21.49 21.44 22.14 23.64 25.03 27.06 29.39 32.28 37.18 40.15 42.99 45.82 54.37 58.86 59.22 58.94 58.70 58.43 58.36 58.13 57.80 57.71 58.05 58.29 58.30 56.19 52.29 55.54 57.24 57.64 57.84 57.12
18.91 19.18 19.47 19.31 19.31 19.52 20.03 20.34 20.46 20.63 22.17 21.15 21.51 23.08 23.53 24.28 25.34 27.18 30.37 34.42 37.43 40.83 42.49 44.29 53.24 58.49 58.64 53.05 52.82 56.76 58.04 58.01 57.71 57.29 57.92 58.27 51.14 51.72 51.68 51.99 53.16 57.01 57.46
18.21 18.54 18.89 19.16 19.77 20.12 21.00 19.73 20.71 21.95 21.11 21.21 21.95 22.80 23.08 23.32 24.64 26.30 29.20 31.10 33.84 37.17 38.51 39.76 42.51 42.78 44.20 45.25 46.41 49.71 58.78 58.23 57.90 57.87 57.83 57.71 57.72 53.83 56.14 51.85 51.57 52.34 52.91
18.09 18.56 19.09 19.62 20.97 21.85 21.34 21.84 22.46 21.70 20.83 20.72 21.62 22.30 22.88 23.02 24.46 25.74 27.03 29.60 31.84 33.67 34.82 35.59 37.92 38.58 39.97 42.97 43.93 44.56 54.71 58.34 58.55 58.54 58.56 58.11 57.87 56.94 57.05 56.66 55.27 56.53 56.60
19.49 19.54 20.39 21.03 21.38 21.68 21.71 21.83 21.58 21.44 20.71 20.00 21.09 22.23 23.34 23.31 23.68 24.36 26.29 28.38 30.35 31.74 32.37 33.12 34.14 35.24 36.79 39.95 41.13 43.21 48.74 54.37 56.97 58.29 58.67 58.76 58.28 54.44 51.41 56.63 55.68 55.69 56.53
21.60 20.69 21.27 21.44 21.49 21.49 21.78 21.26 21.01 20.43 19.36 20.23 21.63 22.98 23.80 24.17 23.68 24.67 26.59 28.70 29.68 30.56 31.99 31.78 31.89 34.29 33.80 38.71 39.99 40.87 44.89 49.90 53.62 56.19 57.44 50.89 57.27 52.10 50.44 56.02 56.25 54.81 55.42
21.10 21.85 21.51 20.48 20.90 21.41 21.11 20.24 20.69 18.97 20.53 21.74 22.49 22.67 24.14 24.57 25.43 25.77 27.13 28.48 28.26 28.90 29.47 29.81 30.73 31.25 32.86 34.79 38.52 39.60 38.45 39.85 43.13 48.69 51.32 55.92 49.05 50.23 49.67 52.17 56.81 55.93 56.66
21.14 21.27 20.11 20.18 21.19 21.12 20.20 19.56 19.46 20.46 21.21 21.85 21.93 22.07 23.08 23.81 25.07 25.65 26.32 27.25 27.68 26.93 26.97 27.69 28.36 29.63 30.84 34.32 36.03 37.79 38.62 39.12 38.81 39.55 41.23 42.50 42.89 43.96 46.49 49.95 53.30 51.26 51.69
20.78 21.27 19.96 19.74 20.71 20.96 20.03 18.47 19.67 20.39 20.25 21.04 20.98 21.64 22.26 22.81 23.44 24.15 25.33 24.91 26.37 25.85 26.08 25.72 26.13 26.82 28.83 30.64 34.01 34.76 36.20 37.24 36.57 38.07 40.11 41.20 41.29 43.00 45.10 45.28 48.17 49.19 54.79
19.56 20.34 19.35 18.53 18.83 20.74 20.17 19.61 20.01 20.20 19.53 19.76 20.32 21.21 20.76 21.60 22.27 23.17 23.97 24.31 24.05 24.52 24.83 25.23 24.82 25.74 26.56 28.55 30.62 31.39 32.09 34.33 34.87 35.63 36.20 37.82 39.27 39.50 39.19 41.74 42.36 48.35 54.21
18.50 18.52 17.63 17.61 18.14 19.70 19.48 20.01 19.59 19.13 18.31 19.18 20.22 20.33 20.63 20.30 20.96 22.04 21.78 22.30 23.99 25.21 24.34 25.20 26.36 24.89 24.38 27.40 31.03 31.90 31.37 32.39 33.47 32.66 31.57 31.00 31.39 31.88 32.81 34.59 34.38 36.08 37.30
16.46 16.21 16.22 16.25 16.77 17.43 17.33 18.23 18.88 18.23 17.51 17.99 19.54 19.70 19.54 19.60 20.50 20.65 21.13 23.98 23.95 24.66 26.02 27.18 27.45 25.85 27.64 28.89 29.88 31.85 32.53 33.24 32.85 28.09 26.31 25.49 25.98 26.02 26.84 27.49 28.46 29.81 31.75
MSLP
1019.70 1019.10 1018.68 1017.86 1016.82 1015.76 1014.73 1014.15 1013.63 1013.94 1011.83 1009.51 1005.74 1003.76 1005.40 1007.14 1008.11 1008.78 1009.53 1010.18 1010.68 1011.50 1012.30 1013.28 1014.34 1015.22 1015.86 1016.44 1017.13 1017.74 1018.32 1018.86 1019.51 1020.16 1020.93 1021.66 1021.88 1022.09 1022.33 1022.79 1023.15 1023.54 1023.68
1020.31 1019.38 1019.02 1018.34 1017.55 1016.64 1015.75 1014.65 1014.10 1013.38 1013.58 1010.64 1009.45 1006.68 1005.14 1006.16 1007.22 1008.27 1008.93 1009.66 1010.21 1011.15 1012.07 1013.07 1014.01 1014.81 1015.66 1016.35 1016.92 1017.55 1018.33 1019.07 1019.69 1020.10 1020.74 1021.46 1022.21 1022.20 1022.48 1022.75 1023.00 1023.51 1023.82
1021.10 1020.05 1019.38 1018.87 1018.30 1017.35 1016.43 1015.63 1015.00 1014.14 1012.57 1012.17 1009.56 1007.01 1004.91 1006.23 1007.35 1008.20 1008.38 1009.30 1009.85 1010.91 1011.81 1012.84 1013.75 1014.42 1015.21 1016.02 1016.76 1017.46 1018.18 1019.16 1019.64 1019.82 1019.76 1020.55 1020.75 1021.88 1022.55 1022.85 1023.10 1023.44 1023.73
1021.81 1021.06 1020.24 1019.56 1018.87 1018.09 1017.34 1016.24 1015.35 1013.88 1012.92 1012.61 1010.41 1008.39 1004.52 1005.22 1006.49 1007.63 1007.91 1008.80 1009.34 1010.39 1011.36 1012.45 1013.38 1014.03 1014.73 1015.64 1016.56 1017.33 1018.01 1018.79 1019.12 1019.44 1019.72 1019.99 1019.76 1020.72 1022.00 1022.61 1022.88 1023.24 1023.49
1022.33 1021.53 1020.90 1020.34 1019.68 1018.72 1017.77 1016.70 1016.16 1015.09 1012.95 1012.52 1011.69 1009.13 1008.53 1005.30 1005.98 1006.81 1007.42 1008.13 1008.98 1010.06 1011.01 1012.02 1013.00 1013.81 1014.36 1015.27 1016.13 1017.11 1017.74 1018.43 1018.94 1019.15 1019.74 1020.17 1020.12 1020.09 1020.81 1021.83 1022.56 1023.11 1023.38
1022.51 1021.89 1021.31 1020.58 1019.97 1019.11 1018.19 1016.98 1015.82 1014.30 1013.04 1013.27 1011.71 1010.03 1008.12 1006.95 1005.53 1005.88 1006.96 1007.49 1008.49 1009.75 1010.81 1011.66 1012.51 1013.32 1014.08 1014.80 1015.63 1016.53 1017.37 1017.99 1018.68 1019.10 1019.54 1019.87 1020.07 1020.19 1020.30 1020.90 1021.95 1022.63 1023.09
1022.74 1022.05 1021.41 1020.82 1020.21 1019.44 1018.59 1017.71 1016.27 1014.86 1014.76 1014.00 1012.35 1011.62 1008.32 1007.57 1005.31 1005.25 1006.31 1006.90 1008.03 1009.11 1010.15 1011.13 1012.01 1012.81 1013.54 1014.22 1015.00 1015.92 1016.88 1017.51 1018.19 1018.77 1019.12 1019.45 1019.68 1019.93 1020.11 1020.33 1021.36 1021.99 1022.60
1023.12 1022.54 1022.01 1021.54 1020.93 1020.20 1019.37 1018.31 1016.61 1015.15 1014.91 1013.84 1012.20 1011.71 1009.70 1009.39 1006.68 1004.91 1005.96 1006.55 1007.37 1008.34 1009.35 1010.39 1011.28 1012.00 1012.81 1013.65 1014.50 1015.39 1016.36 1017.13 1017.75 1018.32 1018.69 1019.14 1019.34 1019.58 1019.96 1020.07 1020.72 1021.47 1022.06
1023.31 1022.84 1022.39 1022.11 1021.45 1020.77 1020.20 1019.18 1017.76 1016.52 1015.54 1014.26 1013.67 1012.54 1010.95 1009.34 1007.64 1005.95 1004.67 1005.97 1007.02 1008.09 1009.00 1009.77 1010.62 1011.41 1012.26 1013.14 1014.04 1014.87 1015.82 1016.65 1017.30 1017.83 1018.29 1018.70 1019.08 1019.46 1019.81 1019.94 1020.31 1020.57 1021.16
1023.43 1023.08 1022.70 1022.43 1022.06 1021.51 1020.86 1020.27 1018.70 1017.52 1017.09 1015.66 1013.88 1013.66 1012.00 1010.73 1008.16 1008.14 1005.71 1005.61 1006.68 1007.84 1008.69 1009.33 1010.07 1010.86 1011.71 1012.56 1013.57 1014.36 1015.29 1016.08 1016.78 1017.30 1017.80 1018.24 1018.66 1019.11 1019.55 1019.92 1020.12 1020.27 1020.44
1023.50 1023.21 1022.92 1022.65 1022.56 1022.05 1021.27 1020.74 1019.30 1018.53 1017.73 1016.62 1015.17 1013.69 1012.54 1010.55 1008.98 1008.99 1007.18 1006.02 1006.33 1007.11 1008.14 1008.91 1009.52 1010.32 1011.08 1011.82 1012.72 1013.59 1014.51 1015.32 1016.09 1016.75 1017.28 1017.78 1018.22 1018.73 1019.27 1019.73 1020.04 1020.23 1020.37
1023.54 1023.24 1023.04 1022.77 1022.60 1022.42 1021.79 1021.13 1019.85 1019.41 1018.67 1017.60 1016.13 1015.02 1013.15 1011.67 1010.80 1010.08 1008.67 1007.87 1006.47 1006.71 1007.56 1008.31 1009.05 1009.66 1010.42 1011.19 1011.93 1012.74 1013.59 1014.45 1015.30 1016.09 1016.77 1017.21 1017.76 1018.26 1018.70 1019.21 1019.67 1020.00 1020.17
1023.42 1023.16 1023.03 1022.94 1022.80 1022.61 1022.10 1021.62 1020.28 1019.62 1018.89 1017.84 1017.03 1015.83 1013.84 1013.06 1012.10 1010.56 1009.73 1009.12 1008.03 1007.60 1007.26 1007.88 1008.49 1008.97 1009.74 1010.63 1011.56 1012.22 1012.84 1013.67 1014.42 1015.21 1016.00 1016.52 1017.14 1017.75 1018.11 1018.57 1019.15 1019.62 1019.89
1023.39 1023.20 1022.99 1022.96 1022.86 1022.73 1022.20 1021.54 1021.14 1020.09 1019.41 1018.59 1017.40 1015.97 1015.65 1014.79 1012.80 1011.99 1010.75 1009.78 1008.81 1008.29 1006.92 1007.39 1007.76 1008.29 1009.16 1009.97 1010.83 1011.70 1012.30 1013.02 1013.67 1014.46 1015.07 1015.76 1016.30 1016.92 1017.49 1018.00 1018.56 1019.12 1019.61
1023.38 1023.36 1023.12 1022.90 1022.84 1022.63 1022.49 1022.17 1021.12 1020.64 1020.09 1018.68 1017.77 1016.65 1016.21 1015.67 1013.54 1012.47 1011.41 1010.43 1009.52 1008.81 1008.34 1007.44 1007.21 1007.82 1008.69 1009.41 1010.17 1010.91 1011.60 1012.30 1012.98 1013.74 1014.35 1014.95 1015.43 1016.00 1016.69 1017.25 1017.90 1018.49 1019.11
1023.60 1023.57 1023.38 1023.14 1022.83 1022.50 1022.32 1022.28 1021.49 1021.14 1020.78 1019.51 1018.39 1017.27 1016.76 1015.40 1013.72 1013.26 1012.65 1011.19 1010.53 1009.96 1008.78 1008.58 1007.73 1007.69 1008.38 1009.09 1009.38 1010.01 1010.74 1011.46 1012.12 1012.77 1013.49 1014.19 1014.75 1015.30 1016.02 1016.54 1017.07 1017.48 1018.08
1023.85 1023.74 1023.59 1023.36 1022.89 1022.53 1022.24 1021.49 1021.49 1020.88 1020.46 1019.86 1019.10 1018.38 1017.40 1015.59 1014.98 1014.15 1013.89 1012.85 1011.98 1011.03 1009.60 1009.91 1009.67 1009.57 1010.46 1010.23 1009.96 1009.91 1010.23 1010.81 1011.36 1011.96 1012.60 1013.29 1013.89 1014.59 1015.40 1015.84 1016.23 1016.58 1016.97
1023.97 1023.91 1023.80 1023.46 1022.95 1022.55 1022.19 1022.03 1021.88 1021.20 1020.52 1020.05 1019.34 1018.54 1017.44 1016.97 1016.38 1015.37 1014.41 1013.57 1012.41 1012.06 1010.95 1011.42 1010.92 1011.14 1011.59 1011.54 1010.76 1010.63 1010.21 1010.26 1010.64 1011.17 1011.70 1012.19 1012.76 1013.47 1014.38 1015.12 1015.64 1015.91 1016.23
1023.81 1023.86 1023.85 1023.50 1023.15 1022.71 1022.46 1021.95 1021.49 1021.00 1021.06 1020.42 1019.73 1019.30 1018.09 1017.72 1016.51 1015.60 1014.56 1013.70 1013.07 1012.82 1012.14 1012.05 1012.49 1012.32 1011.79 1011.99 1011.58 1011.17 1010.54 1010.24 1010.17 1010.50 1010.88 1011.36 1012.01 1012.64 1013.47 1014.06 1014.59 1015.07 1015.31
1023.35 1023.48 1023.54 1023.48 1023.17 1023.00 1022.57 1022.02 1021.56 1021.48 1021.31 1020.82 1020.17 1019.35 1019.09 1018.11 1017.20 1016.86 1016.01 1015.40 1014.87 1014.30 1013.74 1013.56 1012.88 1013.65 1014.01 1013.49 1012.82 1012.72 1010.96 1010.61 1010.46 1010.27 1010.48 1010.65 1011.08 1011.82 1012.50 1013.22 1013.64 1014.05 1014.46
1023.10 1023.26 1023.31 1023.29 1023.20 1023.10 1022.87 1022.35 1022.07 1021.94 1021.72 1020.97 1020.52 1019.89 1019.18 1018.67 1018.24 1018.03 1017.18 1016.40 1015.90 1015.29 1015.01 1014.59 1014.42 1014.68 1014.69 1014.30 1013.70 1013.65 1012.72 1012.06 1011.39 1010.74 1010.88 1010.64 1010.85 1011.03 1011.55 1012.25 1012.62 1012.92 1013.64
1022.72 1023.06 1023.17 1023.13 1023.17 1023.28 1023.17 1022.79 1022.36 1022.30 1021.93 1021.19 1020.70 1020.19 1019.93 1019.89 1019.37 1018.67 1018.02 1017.53 1016.76 1016.76 1016.19 1015.74 1015.80 1015.98 1016.20 1015.78 1014.98 1013.89 1014.10 1013.12 1012.24 1012.03 1012.00 1011.56 1011.46 1011.75 1011.56 1011.50 1011.85 1012.29 1012.77
1022.66 1022.87 1023.12 1023.08 1023.05 1023.10 1023.17 1022.90 1022.64 1022.30 1021.97 1021.47 1020.85 1020.48 1020.52 1019.81 1019.13 1019.32 1019.09 1018.57 1017.87 1017.63 1017.13 1017.19 1016.87 1017.16 1016.91 1016.11 1015.44 1014.88 1014.12 1013.62 1013.09 1012.67 1012.50 1011.93 1011.43 1011.93 1011.54 1011.72 1011.61 1011.77 1011.96
1022.66 1022.87 1023.10 1023.16 1023.00 1022.94 1023.09 1023.10 1022.99 1022.72 1022.28 1021.82 1021.42 1021.00 1020.60 1020.08 1019.83 1019.70 1019.32 1019.18 1019.04 1018.90 1018.47 1018.12 1017.70 1017.48 1016.87 1016.24 1015.49 1014.88 1014.64 1014.73 1013.75 1012.61 1012.74 1012.69 1012.38 1012.30 1012.00 1011.78 1012.00 1011.82 1011.49
1022.95 1023.11 1023.23 1023.29 1023.22 1023.14 1023.06 1023.03 1023.13 1023.03 1022.61 1022.08 1021.69 1021.41 1021.00 1020.87 1020.45 1020.07 1019.77 1019.87 1020.01 1019.91 1019.30 1018.90 1018.52 1018.17 1017.65 1017.58 1016.62 1016.12 1015.81 1015.39 1014.18 1013.83 1013.62 1013.41 1013.27 1013.31 1013.42 1013.11 1013.24 1013.07 1012.52
1023.20 1023.35 1023.46 1023.47 1023.47 1023.49 1023.45 1023.33 1023.29 1023.25 1023.06 1022.70 1022.19 1021.86 1021.61 1021.46 1021.13 1020.70 1020.44 1020.52 1020.59 1020.50 1019.74 1019.58 1019.13 1019.03 1018.83 1018.16 1017.36 1016.69 1016.51 1016.14 1015.38 1014.96 1014.80 1014.98 1015.04 1015.22 1015.02 1014.78 1014.34 1014.15 1013.90
Wind_Speed
20 17 19 19 20 20 21 20 19 17 15 14 6 11 14 13 10 11 17 16 14 16 14 11 13 11 11 11 12 10 11 8 9 8 8 6 4 8 3 5 5 5 5
21 20 20 20 19 21 22 20 19 19 13 12 10 13 15 14 13 12 17 18 16 16 13 14 13 13 10 13 12 11 9 7 8 8 8 6 5 5 4 4 5 7 5
21 22 20 20 18 20 21 20 18 18 16 16 13 12 14 12 12 12 13 14 16 16 15 16 13 14 12 11 12 12 12 10 9 11 4 5 4 8 5 6 5 7 5
20 19 19 18 19 19 18 19 18 18 14 12 13 12 11 15 14 11 13 14 18 18 16 16 15 14 11 13 12 11 10 11 10 8 1 4 4 4 6 6 6 6 6
19 19 19 16 16 17 17 18 17 15 19 15 15 10 14 12 12 13 18 17 15 17 17 16 16 14 10 14 14 13 12 9 9 6 6 3 2 2 7 7 7 4 5
18 18 18 18 16 16 17 18 18 18 19 14 16 16 11 11 15 16 14 13 13 13 17 17 15 15 13 15 14 14 13 11 9 7 8 5 4 5 4 7 9 7 7
16 17 19 18 17 19 19 17 19 19 18 16 16 16 12 20 16 18 14 16 13 13 16 18 16 14 15 15 14 14 12 11 10 11 8 6 5 6 2 4 8 7 7
15 16 18 17 17 18 19 19 19 20 20 17 19 15 13 9 11 15 14 13 13 14 18 18 17 18 16 15 14 12 11 11 10 12 10 6 5 4 3 3 7 7 5
14 16 16 16 16 16 18 18 18 17 20 19 15 15 13 14 12 8 14 14 14 13 17 19 18 17 16 16 15 11 13 12 11 11 10 8 6 5 5 3 6 6 5
14 14 14 15 15 14 15 16 15 17 18 18 16 14 13 12 12 11 6 16 15 16 17 18 17 17 17 16 16 12 14 14 11 9 12 9 8 7 4 3 3 3 3
14 12 12 12 14 14 15 15 15 17 17 16 16 16 14 14 12 11 10 3 12 16 18 18 18 18 18 18 17 15 15 15 13 12 12 12 11 7 6 5 4 3 2
11 11 11 12 13 14 14 16 14 14 15 15 15 15 14 15 12 12 11 11 1 13 17 19 18 18 17 17 17 17 15 16 15 14 13 13 10 12 10 7 7 5 5
12 11 11 11 12 12 13 15 15 15 15 16 14 14 16 15 13 13 11 11 7 6 17 18 19 18 18 17 16 16 16 16 16 15 15 14 14 12 10 9 7 6 4
10 11 11 11 11 11 12 14 14 14 15 14 14 14 15 15 13 13 12 9 9 7 7 17 18 17 17 18 17 16 16 16 15 15 15 15 15 14 13 10 10 8 6
11 11 12 11 11 11 11 11 12 14 14 14 14 15 14 13 12 14 12 9 8 7 6 6 14 16 16 14 18 17 16 16 16 15 15 15 15 16 15 10 11 10 8
10 11 12 13 12 11 11 11 11 11 13 13 14 15 14 14 14 14 13 11 9 7 8 10 5 13 11 12 19 19 16 17 16 16 15 15 14 14 18 16 16 14 13
9 10 11 11 12 11 11 12 11 10 12 12 13 14 14 15 16 14 13 10 9 7 10 11 12 13 11 13 12 7 14 15 15 16 15 14 11 15 14 16 18 17 17
8 9 8 10 11 11 12 10 9 9 11 12 13 14 14 14 13 12 13 11 9 9 8 10 11 11 13 21 15 8 10 13 16 16 16 16 16 16 17 16 15 16 14
6 6 6 8 9 10 11 11 11 10 10 12 12 12 13 13 14 15 15 14 11 11 10 8 10 9 12 25 24 14 2 10 11 13 15 15 15 16 19 16 16 17 15
6 6 7 7 7 8 10 11 11 12 12 12 11 11 11 12 14 13 12 10 9 10 9 11 13 17 10 20 23 17 4 4 7 9 10 16 17 17 21 19 16 15 15
7 6 6 6 6 7 8 9 10 11 11 12 11 11 11 11 12 11 9 10 9 10 11 12 11 12 14 13 21 19 8 5 4 2 2 4 7 14 20 24 17 15 13
6 6 6 6 5 5 6 8 9 9 10 11 11 11 11 8 8 11 11 11 10 10 10 10 9 9 9 17 19 21 17 13 4 3 3 3 9 8 7 18 22 15 15
6 5 6 7 6 4 5 7 8 10 10 10 10 10 10 9 10 9 9 8 9 9 8 7 7 7 7 8 21 21 21 17 6 5 8 8 10 6 3 8 13 16 12
5 5 6 7 7 5 4 5 6 8 9 9 9 8 8 10 9 7 7 7 8 8 7 7 7 7 8 10 10 10 11 14 9 9 7 8 9 11 9 5 5 5 12
4 5 6 7 7 6 6 5 5 6 7 8 7 7 6 7 7 7 7 7 7 8 6 7 6 8 8 10 16 14 10 9 9 5 7 7 8 7 7 6 6 6 4
3 5 6 6 6 6 6 6 4 4 5 6 5 5 5 5 5 5 5 7 9 11 14 14 12 7 14 18 19 18 19 18 16 7 7 8 8 8 7 7 6 7 8
Wind_Direction
342 353 354 352 349 343 342 343 345 342 337 315 266 182 164 165 158 160 171 170 167 169 168 159 160 163 164 158 159 156 154 149 148 138 131 124 149 122 174 138 131 150 140
348 352 355 357 353 345 342 340 346 341 331 326 315 285 165 171 168 165 173 173 166 169 169 160 167 165 164 161 165 158 151 144 145 150 138 142 151 168 166 155 153 157 148
349 349 355 353 348 347 340 338 339 332 351 332 319 296 160 162 171 177 168 172 168 172 173 164 171 169 162 165 161 160 154 160 177 170 164 151 172 155 171 176 176 159 166
348 352 353 350 350 343 335 335 341 336 335 353 317 305 253 166 170 170 158 168 169 172 173 169 173 172 166 163 160 161 164 165 180 172 108 2 132 161 158 178 179 175 178
346 351 353 350 349 342 337 332 339 342 338 348 333 330 331 179 169 162 165 168 170 172 175 171 174 173 166 163 161 166 168 172 180 176 147 187 158 211 147 161 171 179 186
344 350 352 354 351 345 342 336 341 348 351 348 339 329 333 285 174 172 176 168 167 171 176 175 175 172 170 165 168 168 175 169 175 178 167 180 178 168 182 147 167 178 179
344 349 354 354 352 349 345 340 342 357 345 337 346 326 353 325 184 177 175 162 169 173 176 175 177 175 174 170 168 168 177 176 178 182 173 190 185 179 200 149 161 179 156
347 349 352 352 351 350 343 341 348 348 340 348 344 332 352 322 274 186 174 172 171 174 174 178 180 177 174 170 170 168 174 179 177 180 186 183 180 173 181 178 158 169 159
346 348 350 354 351 351 344 342 345 349 340 350 341 331 337 337 321 246 183 177 172 176 177 179 179 179 176 171 170 171 174 180 179 185 188 183 188 168 188 221 167 170 158
342 347 348 352 350 350 342 340 348 354 338 342 352 331 332 307 351 312 210 184 176 176 177 177 179 174 172 172 175 174 182 181 185 185 188 191 190 172 187 176 197 226 188
338 343 346 349 350 349 349 340 354 353 344 342 344 338 333 338 354 330 356 327 175 174 176 181 178 177 177 176 175 181 182 185 184 188 192 194 191 183 175 179 189 208 210
334 341 346 347 350 350 351 341 350 352 345 338 341 342 343 342 348 338 355 346 309 190 180 182 183 180 180 180 182 182 180 187 187 190 194 194 192 198 185 179 181 188 192
335 341 347 349 349 349 349 341 349 349 343 343 344 352 354 345 340 338 346 343 1 299 183 185 187 181 183 183 189 188 185 190 192 191 194 194 194 197 199 193 184 182 187
334 340 344 349 347 351 349 347 346 351 341 342 342 358 356 337 342 336 338 342 343 330 250 187 188 186 187 188 190 194 193 192 196 196 195 194 196 196 196 193 189 179 182
335 340 342 345 347 346 351 338 354 351 340 343 350 355 344 338 355 344 344 350 352 355 357 273 192 189 191 192 193 195 196 196 196 200 201 200 198 192 191 188 188 180 179
329 334 339 342 343 347 348 347 350 350 340 349 350 351 347 343 0 356 350 352 357 357 35 2 312 194 193 199 193 193 195 198 200 199 201 200 194 194 190 191 187 185 183
320 328 335 337 338 345 345 354 349 347 348 352 352 349 351 356 359 357 343 2 359 5 53 32 39 43 49 42 35 198 200 202 203 204 201 201 199 196 202 200 195 195 192
313 323 328 329 335 340 350 345 348 359 356 351 356 350 355 355 350 359 357 358 18 6 50 47 46 48 36 19 28 359 216 206 207 208 208 204 201 195 200 201 206 207 205
301 301 306 321 328 338 343 342 353 6 4 357 353 356 356 349 0 359 0 360 11 8 31 48 55 50 48 20 11 350 263 225 220 212 210 208 207 200 194 201 203 208 214
295 303 311 318 321 342 340 342 354 2 0 0 354 357 359 353 5 352 1 5 5 21 30 32 44 33 28 27 16 358 341 246 227 238 226 211 208 195 188 203 205 208 209
295 300 295 308 320 330 336 339 346 359 350 352 357 3 4 5 2 354 0 9 12 25 31 38 35 34 16 12 24 21 15 353 314 339 303 246 233 205 190 198 211 212 205
281 270 286 298 311 318 324 330 343 345 345 349 357 4 3 10 10 4 6 3 22 27 29 31 38 26 12 11 17 20 14 10 26 28 343 351 355 335 243 197 211 206 197
278 267 274 289 295 292 307 318 340 337 339 342 357 3 358 4 17 17 8 15 17 20 28 25 31 21 6 11 11 13 12 7 24 18 7 15 32 342 263 251 231 211 219
259 258 263 274 282 285 286 301 324 331 329 336 345 354 3 2 13 20 24 22 15 16 18 15 26 17 15 6 4 9 3 353 352 21 23 28 40 46 36 25 5 251 232
248 249 247 264 276 286 285 297 313 327 322 327 337 351 9 1 6 16 29 24 31 19 14 7 21 17 16 4 7 11 5 356 9 32 38 33 28 31 20 29 24 358 359
255 243 242 247 262 272 273 284 296 307 310 313 333 349 355 358 7 9 12 40 31 24 29 21 29 20 13 10 11 16 19 22 32 38 41 39 38 31 24 21 18 24 6